Regional Weather Roundup
Issued by NWS

Home | Current Version | Previous Version | Text Only | Print | Product List | Glossary Off
Versions: 1 2 3 4 5 6 7 8 9 10 11 12 13 14 15 16 17 18 19 20 21 22 23 24 25 26 27 28 29 30 31 32 33 34 35 36 37 38 39 40 41 42 43 44 45 46 47 48 49 50

000
ASUS43 KLMK 260310
RWRKY
KENTUCKY REGIONAL WEATHER ROUNDUP
NATIONAL WEATHER SERVICE LOUISVILLE KY
1100 PM EDT SAT APR 25 2015

NOTE "FAIR" INDICATES FEW OR NO CLOUDS BELOW 12,000 FEET
WITH NO SIGNIFICANT WEATHER AND/OR OBSTRUCTIONS TO VISIBILITY.

KYZ001>023-026-027-061>063-070>075-260400-
WESTERN AND SOUTH CENTRAL KENTUCKY

CITY           SKY/WX    TMP DP  RH WIND       PRES   REMARKS
PADUCAH        CLOUDY    62  59  90 CALM      29.60R
HENDERSON      CLOUDY    57  54  88 N9        29.58R
OWENSBORO      CLOUDY    58  57  96 NE8       29.59R
HOPKINSVILLE   NOT AVBL
BOWLING GREEN  LGT RAIN  62  59  90 CALM      29.57R
GLASGOW        LGT RAIN  59  59 100 CALM      29.56S
$$

KYZ024-025-028>034-038-045-046-053-260400-
NORTH CENTRAL KENTUCKY

CITY           SKY/WX    TMP DP  RH WIND       PRES   REMARKS
LOUISVILLE/SDF CLOUDY    50  47  89 N13       29.60R
LOUISVILLE/LOU CLOUDY    48  45  89 NE9       29.61R
FORT KNOX      NOT AVBL
$$

KYZ035>037-039>044-047>052-055>060-089>105-260400-
NORTHEAST KENTUCKY

CITY           SKY/WX    TMP DP  RH WIND       PRES   REMARKS
LEXINGTON      CLOUDY    47  45  93 NE13      29.56F
COVINGTON      CLOUDY    45  42  89 NE17G29   29.64R
FRANKFORT      CLOUDY    46  43  89 NE9       29.58S
$$

KYZ054-064>069-076>088-106>120-260400-
SOUTHEAST KENTUCKY

CITY           SKY/WX    TMP DP  RH WIND       PRES   REMARKS
JACKSON        LGT RAIN  49  48  97 CALM      29.57R VSB 3/4
LONDON         HVY RAIN  55  50  83 N10       29.58R
SOMERSET       RAIN      55  55 100 NE8       29.56R
MIDDLESBORO    PTCLDY    68  62  79 S6        29.51S
MONTICELLO     MOCLDY    60  60 100 CALM      29.59R
$$



USA.gov is the U.S. government's official web portal to all federal, state and local government web resources and services.